Regional Weather Roundup
Issued by NWS Kansas City/Pleasant Hill, MO

Home | Current Version | Previous Version | Text Only | Print | Product List | Glossary On
Versions: 1 2 3 4 5 6 7 8 9 10 11 12 13 14 15 16 17 18 19 20 21 22 23 24 25 26 27 28 29 30 31 32 33 34 35 36 37 38 39 40 41 42 43 44 45 46 47 48 49 50
000
ASUS43 KEAX 050210
RWREAX

WEATHER ROUNDUP FOR EASTERN KANSAS AND NORTHWEST MISSOURI
NATIONAL WEATHER SERVICE KANSAS CITY/PLEASANT HILL MO
900 PM CDT SAT JUL 04 2015

KSZ040-057-103>105-MOZ028-029-037-043-050300-
...KANSAS CITY METROPOLITAN AREA...

CITY           SKY/WX    TMP DP  RH WIND       PRES   REMARKS
K.C. INTL      PTCLDY    75  63  66 SE6       29.95R
K.C. DOWNTOWN  PTCLDY    79  63  57 SE7       29.93R
LEES SUMMIT    PTCLDY    75  63  66 SE3       29.95S
OLATHE - IXD   PTCLDY    75  65  70 SE3       29.95S
OLATHE - OJC   PTCLDY    75  64  68 E3        29.94S
LAWRENCE       PTCLDY    71  66  84 SE3       29.94R

$$

MOZ001>008-011>017-020>025-030>033-038>040-044>046-053-054-050300-
...NORTHERN AND CENTRAL MISSOURI...

CITY           SKY/WX    TMP DP  RH WIND       PRES   REMARKS
ST. JOSEPH     PTCLDY    75  64  68 SE7       29.94R
MOSBY          PTCLDY    75  64  69 CALM      29.95R
HARRISONVILLE  PTCLDY    75  64  69 E6        29.98S
WARRENSBURG    PTCLDY    73  64  73 CALM      29.96R
WHITEMAN AFB   PTCLDY    74  68  81 S2        29.96R
CLINTON        PTCLDY    75  70  83 CALM      29.97R
SEDALIA        PTCLDY    75  66  73 SE3       29.98S
WARSAW         FAIR      73  66  78 CALM      29.98R
CHILLICOTHE      N/A     73  64  73 CALM      29.97R
KIRKSVILLE     LGT RAIN  71  61  70 E6        29.99S

$$

MOZ041-047>049-056>058-063>065-088>090-097-050300-
...EASTERN AND SOUTHERN MISSOURI...

CITY           SKY/WX    TMP DP  RH WIND       PRES   REMARKS
ST. LOUIS INTL PTCLDY    76  62  62 E6        30.00R
SPIRIT OF STL  CLEAR     71  66  84 CALM      29.98R
COLUMBIA       CLEAR     74  66  76 E5        29.99R
JEFFERSON CITY CLEAR     76  65  68 E5        29.97R
MEXICO         CLEAR     75  72  88 CALM      29.99R
ROLLA          CLEAR     72  67  84 E5        29.98S
LEBANON        PTCLDY    75  68  78 CALM      30.00R
OSAGE BEACH    CLEAR     72  66  83 CALM      29.98R
SPRINGFIELD    PTCLDY    77  68  73 CALM      29.97R
BRANSON        MOCLDY    75  70  83 CALM      29.99S
JOPLIN         PTCLDY    77  67  71 E5        29.95R
WEST PLAINS    PTCLDY    74  68  81 SE5       30.01R
MALDEN         CLOUDY    75  72  88 SE3       29.99S HAZE

$$

IAZ060-094-KSZ022-034>040-054-083-096-NEZ052-066-093-050300-
...KANSAS...SOUTHEAST NEBRASKA AND IOWA...

CITY           SKY/WX    TMP DP  RH WIND       PRES   REMARKS
TOPEKA         PTCLDY    75  65  70 SE6       29.93S
MANHATTAN      CLEAR     78  67  68 SE5       29.91R
EMPORIA        CLEAR     77  63  61 SE7       29.92S
CHANUTE        CLEAR     78  67  68 E6        29.93R
WICHITA        PTCLDY    84  64  50 SE10      29.89S
OMAHA          PTCLDY    76  63  64 SE12      29.90S
LINCOLN        CLEAR     78  64  61 SE9       29.90S
FALLS CITY     CLEAR     73  65  75 SE6       29.92S
LAMONI         MOCLDY    75  63  66 SE3       29.96S
DES MOINES     MOCLDY    76  60  57 SE6       29.94S

$$




USA.gov is the U.S. government's official web portal to all federal, state and local government web resources and services.